Location: Bucquoy
(50.1391°N, 2.7097°E)
Time: 03:51:58
(UTC+00:00)

SL-08 R/B - Pass Details

Date: 06 May 2021
Orbit: 674 x 738 km, 98.5° (Epoch: 22 June)

Event Time Altitude Azimuth Distance (km) Brightness Sun altitude
Rises 03:22:33 0° 178° (S) 3,095 6.3 -8.1°
Reaches altitude 10° 03:24:53 10° 183° (S) 2,170 5.5 -7.8°
Maximum altitude 03:29:30 51° 259° (W) 879 3.5 -7.2°
Drops below altitude 10° 03:34:05 10° 336° (NNW) 2,149 6.0 -6.6°
Sets 03:36:23 0° 342° (NNW) 3,062 6.9 -6.3°
